When you browse on this site, cookies collect data to enhance your experience and personalize the content and advertising you see.
Visit our Privacy Policy to learn more. By continuing to use the site, you agree to this use of cookies and data.

Hourly Weather Brasília

Today, 22 September, Tuesday

Time Temperature Precipitation Wind Pressure Humidity
00:00 +25°C° 0 mm 2 mps 666 mmHg 45%
01:00 +23°C° 0.7 mm 2 mps 666 mmHg 56%
02:00 +21°C° 0.7 mm 2 mps 665 mmHg 68%
03:00 +20°C° 0 mm 2 mps 665 mmHg 75%
04:00 +20°C° 0.1 mm 2 mps 665 mmHg 72%
05:00 +20°C° 0.1 mm 2 mps 666 mmHg 70%
06:00 +22°C° 0.1 mm 1 mps 666 mmHg 67%
07:00 +22°C° 0.6 mm 1 mps 667 mmHg 70%
08:00 +21°C° 0.6 mm 1 mps 667 mmHg 74%
09:00 +21°C° 0.6 mm 1 mps 668 mmHg 77%
10:00 +21°C° 0.1 mm 2 mps 668 mmHg 71%
11:00 +23°C° 0.1 mm 2 mps 668 mmHg 65%
12:00 +24°C° 0.1 mm 3 mps 668 mmHg 59%
13:00 +26°C° 0 mm 3 mps 668 mmHg 54%
14:00 +27°C° 0 mm 4 mps 668 mmHg 49%
15:00 +28°C° 0 mm 4 mps 667 mmHg 44%
16:00 +27°C° 0 mm 3 mps 667 mmHg 47%
17:00 +25°C° 0 mm 3 mps 666 mmHg 50%
18:00 +24°C° 0 mm 2 mps 666 mmHg 53%
19:00 +24°C° 0 mm 2 mps 666 mmHg 54%
20:00 +23°C° 0 mm 1 mps 667 mmHg 55%
21:00 +23°C° 0 mm 1 mps 667 mmHg 56%
22:00 +23°C° 0 mm 1 mps 667 mmHg 54%
23:00 +23°C° 0 mm 1 mps 668 mmHg 53%

Tomorrow, 23 September, Wednesday

Time Temperature Precipitation Wind Pressure Humidity
00:00 +24°C° 0 mm 1 mps 668 mmHg 52%
01:00 +23°C° 0 mm 1 mps 667 mmHg 55%
02:00 +23°C° 0 mm 2 mps 667 mmHg 58%
03:00 +21°C° 0 mm 3 mps 667 mmHg 61%
04:00 +21°C° 0 mm 3 mps 667 mmHg 63%
05:00 +20°C° 0 mm 3 mps 667 mmHg 65%
06:00 +20°C° 0 mm 3 mps 667 mmHg 66%
07:00 +21°C° 0 mm 3 mps 668 mmHg 62%
08:00 +23°C° 0 mm 4 mps 669 mmHg 58%
09:00 +25°C° 0 mm 4 mps 669 mmHg 54%
10:00 +27°C° 0 mm 4 mps 670 mmHg 49%
11:00 +29°C° 0 mm 3 mps 670 mmHg 44%
12:00 +30°C° 0 mm 3 mps 670 mmHg 38%
13:00 +30°C° 0 mm 3 mps 669 mmHg 38%
14:00 +30°C° 0 mm 2 mps 668 mmHg 37%
15:00 +30°C° 0 mm 2 mps 667 mmHg 36%
16:00 +28°C° 2.2 mm 3 mps 667 mmHg 48%
17:00 +26°C° 2.2 mm 3 mps 667 mmHg 59%
18:00 +22°C° 2.2 mm 4 mps 666 mmHg 71%
19:00 +22°C° 0.3 mm 3 mps 667 mmHg 69%
20:00 +23°C° 0.3 mm 2 mps 667 mmHg 67%
21:00 +23°C° 0.3 mm 1 mps 668 mmHg 65%
22:00 +23°C° 0.1 mm 2 mps 668 mmHg 67%
23:00 +23°C° 0.1 mm 2 mps 668 mmHg 68%

Day after tomorrow, 24 September, Thursday

Time Temperature Precipitation Wind Pressure Humidity
00:00 +23°C° 0.1 mm 2 mps 668 mmHg 70%
01:00 +21°C° 0.1 mm 3 mps 667 mmHg 73%
02:00 +20°C° 0.1 mm 4 mps 667 mmHg 77%
03:00 +20°C° 0.1 mm 4 mps 667 mmHg 80%
04:00 +20°C° 0.1 mm 5 mps 667 mmHg 81%
05:00 +19°C° 0.1 mm 5 mps 667 mmHg 83%
06:00 +19°C° 0.1 mm 5 mps 667 mmHg 84%
07:00 +20°C° 0 mm 5 mps 668 mmHg 80%
08:00 +20°C° 0 mm 5 mps 668 mmHg 77%
09:00 +21°C° 0 mm 5 mps 669 mmHg 73%
10:00 +23°C° 0 mm 5 mps 669 mmHg 67%
11:00 +25°C° 0 mm 5 mps 669 mmHg 60%
12:00 +27°C° 0 mm 4 mps 669 mmHg 53%
13:00 +28°C° 0 mm 4 mps 669 mmHg 49%
14:00 +29°C° 0 mm 3 mps 668 mmHg 44%
15:00 +30°C° 0 mm 3 mps 668 mmHg 40%
16:00 +29°C° 0 mm 3 mps 667 mmHg 42%
17:00 +28°C° 0 mm 3 mps 667 mmHg 44%
18:00 +27°C° 0 mm 2 mps 667 mmHg 46%
19:00 +26°C° 0 mm 2 mps 667 mmHg 49%
20:00 +25°C° 0 mm 2 mps 667 mmHg 53%
21:00 +24°C° 0 mm 3 mps 667 mmHg 56%
22:00 +23°C° 0 mm 2 mps 667 mmHg 56%
23:00 +23°C° 0 mm 2 mps 667 mmHg 57%

25 September, Friday

Time Temperature Precipitation Wind Pressure Humidity
00:00 +23°C° 0 mm 2 mps 667 mmHg 58%
01:00 +21°C° 0 mm 2 mps 666 mmHg 58%
02:00 +21°C° 0 mm 2 mps 666 mmHg 58%
03:00 +21°C° 0 mm 2 mps 666 mmHg 58%
04:00 +20°C° 0 mm 3 mps 666 mmHg 59%
05:00 +20°C° 0 mm 4 mps 666 mmHg 60%
06:00 +19°C° 0 mm 4 mps 666 mmHg 62%
07:00 +21°C° 0 mm 5 mps 667 mmHg 56%
08:00 +23°C° 0 mm 5 mps 668 mmHg 50%
09:00 +25°C° 0 mm 5 mps 669 mmHg 45%
10:00 +27°C° 0 mm 5 mps 669 mmHg 40%
11:00 +29°C° 0 mm 4 mps 669 mmHg 34%
12:00 +32°C° 0 mm 4 mps 669 mmHg 29%
13:00 +32°C° 0 mm 4 mps 668 mmHg 27%
14:00 +33°C° 0 mm 3 mps 667 mmHg 25%
15:00 +33°C° 0 mm 3 mps 667 mmHg 22%
16:00 +31°C° 0 mm 3 mps 666 mmHg 24%
17:00 +29°C° 0 mm 2 mps 666 mmHg 26%
18:00 +28°C° 0 mm 2 mps 666 mmHg 28%
19:00 +27°C° 0 mm 2 mps 666 mmHg 29%
20:00 +26°C° 0 mm 3 mps 666 mmHg 31%
21:00 +24°C° 0 mm 3 mps 666 mmHg 33%
22:00 +24°C° 0 mm 3 mps 666 mmHg 33%
23:00 +23°C° 0 mm 2 mps 666 mmHg 33%

26 September, Saturday

Time Temperature Precipitation Wind Pressure Humidity
00:00 +23°C° 0 mm 2 mps 666 mmHg 32%
01:00 +23°C° 0 mm 2 mps 665 mmHg 34%
02:00 +21°C° 0 mm 2 mps 665 mmHg 36%
03:00 +21°C° 0 mm 2 mps 665 mmHg 38%
04:00 +20°C° 0 mm 3 mps 665 mmHg 43%
05:00 +20°C° 0 mm 3 mps 665 mmHg 49%
06:00 +19°C° 0 mm 4 mps 666 mmHg 55%
07:00 +21°C° 0 mm 5 mps 667 mmHg 52%
08:00 +23°C° 0 mm 5 mps 667 mmHg 49%
09:00 +25°C° 0 mm 5 mps 668 mmHg 47%
10:00 +27°C° 0 mm 5 mps 668 mmHg 40%
11:00 +30°C° 0 mm 4 mps 668 mmHg 33%
12:00 +33°C° 0 mm 3 mps 668 mmHg 26%
13:00 +33°C° 0 mm 3 mps 668 mmHg 24%
14:00 +33°C° 0 mm 3 mps 667 mmHg 22%
15:00 +34°C° 0 mm 3 mps 666 mmHg 20%
16:00 +31°C° 0 mm 3 mps 666 mmHg 22%
17:00 +30°C° 0 mm 2 mps 665 mmHg 24%
18:00 +28°C° 0 mm 2 mps 665 mmHg 26%
19:00 +27°C° 0 mm 2 mps 665 mmHg 28%
20:00 +26°C° 0 mm 2 mps 665 mmHg 30%
21:00 +25°C° 0 mm 3 mps 665 mmHg 32%
22:00 +24°C° 0 mm 2 mps 665 mmHg 34%
23:00 +23°C° 0 mm 2 mps 665 mmHg 35%

27 September, Sunday

Time Temperature Precipitation Wind Pressure Humidity
00:00 +23°C° 0 mm 2 mps 665 mmHg 36%
01:00 +21°C° 0 mm 2 mps 664 mmHg 37%
02:00 +21°C° 0 mm 2 mps 664 mmHg 37%
03:00 +20°C° 0 mm 2 mps 664 mmHg 38%
04:00 +20°C° 0 mm 3 mps 664 mmHg 39%
05:00 +19°C° 0 mm 3 mps 664 mmHg 41%
06:00 +19°C° 0 mm 3 mps 665 mmHg 42%
07:00 +21°C° 0 mm 4 mps 666 mmHg 41%
08:00 +23°C° 0 mm 4 mps 667 mmHg 39%
09:00 +27°C° 0 mm 4 mps 668 mmHg 37%
10:00 +29°C° 0 mm 4 mps 668 mmHg 32%
11:00 +31°C° 0 mm 3 mps 668 mmHg 26%
12:00 +34°C° 0 mm 2 mps 668 mmHg 20%
13:00 +35°C° 0 mm 2 mps 667 mmHg 18%
14:00 +34°C° 0 mm 1 mps 666 mmHg 17%
15:00 +35°C° 0 mm 1 mps 666 mmHg 15%
16:00 +33°C° 0 mm 1 mps 665 mmHg 17%
17:00 +31°C° 0 mm 2 mps 665 mmHg 20%
18:00 +30°C° 0 mm 2 mps 664 mmHg 22%
19:00 +28°C° 0 mm 2 mps 665 mmHg 23%
20:00 +27°C° 0 mm 2 mps 665 mmHg 25%
21:00 +26°C° 0 mm 2 mps 665 mmHg 26%
22:00 +25°C° 0 mm 2 mps 665 mmHg 28%
23:00 +24°C° 0 mm 2 mps 665 mmHg 30%
Show more